Location: Casteau
(50.5142°N, 4.0161°E)
Time: 08:59:32
(UTC+00:00)

Cosmos 1464 Rocket - Pass Details

Date: 18 September 2020
Orbit: 953 x 1000 km, 82.9° (Epoch: 24 October)

Event Time Altitude Azimuth Distance (km) Brightness Sun altitude
Rises 19:43:04 0° 196° (SSW) 3,617 6.9 -18.1°
Reaches altitude 10° 19:45:34 10° 199° (SSW) 2,677 6.2 -18.5°
Maximum altitude 19:51:39 68° 282° (WNW) 1,029 4.3 -19.3°
Drops below altitude 10° 19:57:50 10° 6° (N) 2,713 6.6 -20.2°
Sets 20:00:23 0° 9° (N) 3,669 7.3 -20.5°
